[ hide orbit diagram ]
For accurate long-term ephemerides, please instead use our Horizons system.This orbit viewer was implemented using two-body methods, and hence should not be used for determining accurate long-term trajectories (over several years or decades) or planetary encounter circumstances.
Orbital Elements at Epoch 2458393.5 (2018-Oct-02.0) TDB
Reference: JPL 13 (heliocentric ecliptic J2000)
Element | Value | Uncertainty (1-sigma) | Units |
e | 1.002991467621466 | 1.0239e-05 | |
a | -1710.444843568408 | 5.8518 | au |
q | 5.116740367838301 | 9.1169e-06 | au |
i | 162.4235729580755 | 1.6101e-05 | deg |
node | 133.1680602301745 | 0.00013021 | deg |
peri | 68.34969068315887 | 0.00019884 | deg |
M | .002585153247590205 | 1.3258e-05 | deg |
tp | 2458207.956463362069 (2018-Mar-30.45646336) | 0.0013297 | TDB |
period | n/a n/a | n/a n/a | d yr |
n | 1.393286607786756E-5 | 7.1501e-08 | deg/d |
Q | n/a | n/a | au |
|
| | Orbit Determination Parameters
Additional Information
|
[ show covariance matrix ]
|